When you browse on this site, cookies collect data to enhance your experience and personalize the content and advertising you see.
Visit our Privacy Policy to learn more. By continuing to use the site, you agree to this use of cookies and data.

Hourly Weather Wiktoria

Today, 9 July, Thursday

Time Temperature Precipitation Wind Pressure Humidity
00:00 +6°C° 0 mm 2 mps 758 mmHg 92%
01:00 +6°C° 0 mm 2 mps 758 mmHg 92%
02:00 +6°C° 0 mm 2 mps 758 mmHg 93%
03:00 +6°C° 0 mm 2 mps 758 mmHg 93%
04:00 +5°C° 0 mm 2 mps 758 mmHg 93%
05:00 +5°C° 0 mm 2 mps 758 mmHg 93%
06:00 +5°C° 0 mm 2 mps 759 mmHg 93%
07:00 +5°C° 0 mm 2 mps 759 mmHg 93%
08:00 +5°C° 0 mm 3 mps 759 mmHg 89%
09:00 +8°C° 0 mm 3 mps 759 mmHg 86%
10:00 +10°C° 0 mm 3 mps 759 mmHg 80%
11:00 +11°C° 0 mm 3 mps 759 mmHg 78%
12:00 +12°C° 0 mm 4 mps 758 mmHg 77%
13:00 +13°C° 0 mm 4 mps 758 mmHg 75%
14:00 +13°C° 0 mm 3 mps 757 mmHg 76%
15:00 +13°C° 0 mm 3 mps 757 mmHg 78%
16:00 +13°C° 0 mm 3 mps 757 mmHg 79%
17:00 +12°C° 0 mm 3 mps 757 mmHg 83%
18:00 +10°C° 0 mm 2 mps 757 mmHg 86%
19:00 +9°C° 0 mm 2 mps 757 mmHg 90%
20:00 +9°C° 0 mm 2 mps 757 mmHg 90%
21:00 +8°C° 0 mm 2 mps 757 mmHg 91%
22:00 +8°C° 0 mm 2 mps 757 mmHg 92%
23:00 +7°C° 0 mm 2 mps 757 mmHg 92%

Tomorrow, 10 July, Friday

Time Temperature Precipitation Wind Pressure Humidity
00:00 +7°C° 0 mm 3 mps 757 mmHg 93%
01:00 +7°C° 0 mm 3 mps 757 mmHg 93%
02:00 +7°C° 0 mm 3 mps 757 mmHg 94%
03:00 +7°C° 0 mm 3 mps 757 mmHg 94%
04:00 +7°C° 0 mm 3 mps 756 mmHg 94%
05:00 +7°C° 0 mm 3 mps 756 mmHg 93%
06:00 +7°C° 0 mm 3 mps 756 mmHg 93%
07:00 +7°C° 0 mm 3 mps 756 mmHg 93%
08:00 +7°C° 0 mm 4 mps 756 mmHg 89%
09:00 +8°C° 0 mm 4 mps 756 mmHg 86%
10:00 +9°C° 0 mm 5 mps 756 mmHg 83%
11:00 +10°C° 0.4 mm 4 mps 756 mmHg 86%
12:00 +10°C° 0.4 mm 4 mps 755 mmHg 89%
13:00 +10°C° 0.4 mm 4 mps 754 mmHg 92%
14:00 +10°C° 0.6 mm 4 mps 754 mmHg 93%
15:00 +10°C° 0.6 mm 3 mps 754 mmHg 94%
16:00 +10°C° 0.6 mm 3 mps 753 mmHg 94%
17:00 +10°C° 0.2 mm 3 mps 753 mmHg 94%
18:00 +10°C° 0.2 mm 3 mps 754 mmHg 95%
19:00 +8°C° 0.2 mm 4 mps 754 mmHg 95%
20:00 +9°C° 0 mm 3 mps 754 mmHg 95%
21:00 +9°C° 0 mm 3 mps 753 mmHg 95%
22:00 +9°C° 0 mm 3 mps 753 mmHg 95%
23:00 +9°C° 0.3 mm 3 mps 753 mmHg 95%

Day after tomorrow, 11 July, Saturday

Time Temperature Precipitation Wind Pressure Humidity
00:00 +9°C° 0.3 mm 3 mps 753 mmHg 96%
01:00 +9°C° 0.3 mm 3 mps 752 mmHg 96%
02:00 +9°C° 0.4 mm 3 mps 752 mmHg 97%
03:00 +9°C° 0.4 mm 2 mps 752 mmHg 97%
04:00 +10°C° 0.4 mm 1 mps 751 mmHg 98%
05:00 +9°C° 0.1 mm 2 mps 751 mmHg 98%
06:00 +9°C° 0.1 mm 2 mps 751 mmHg 97%
07:00 +9°C° 0.1 mm 2 mps 751 mmHg 97%
08:00 +9°C° 0.9 mm 2 mps 751 mmHg 97%
09:00 +10°C° 0.9 mm 2 mps 751 mmHg 97%
10:00 +10°C° 0.9 mm 2 mps 751 mmHg 96%
11:00 +12°C° 0.6 mm 2 mps 751 mmHg 94%
12:00 +12°C° 0.6 mm 3 mps 750 mmHg 91%
13:00 +13°C° 0.6 mm 3 mps 750 mmHg 88%
14:00 +13°C° 1.1 mm 3 mps 749 mmHg 88%
15:00 +12°C° 1.1 mm 3 mps 749 mmHg 88%
16:00 +12°C° 1.1 mm 3 mps 749 mmHg 88%
17:00 +12°C° 0.5 mm 2 mps 749 mmHg 89%
18:00 +11°C° 0.5 mm 1 mps 749 mmHg 89%
19:00 +8°C° 0.5 mm 0 mps 749 mmHg 90%
20:00 +8°C° 0 mm 0 mps 749 mmHg 90%
21:00 +8°C° 0 mm 1 mps 750 mmHg 91%
22:00 +8°C° 0 mm 1 mps 750 mmHg 91%
23:00 +8°C° 0 mm 1 mps 750 mmHg 92%

12 July, Sunday

Time Temperature Precipitation Wind Pressure Humidity
00:00 +8°C° 0 mm 1 mps 750 mmHg 92%
01:00 +7°C° 0 mm 1 mps 749 mmHg 93%
02:00 +7°C° 0 mm 1 mps 749 mmHg 93%
03:00 +7°C° 0 mm 1 mps 749 mmHg 93%
04:00 +7°C° 0 mm 1 mps 749 mmHg 93%
05:00 +7°C° 0.3 mm 1 mps 749 mmHg 93%
06:00 +7°C° 0.3 mm 1 mps 750 mmHg 94%
07:00 +6°C° 0.3 mm 1 mps 750 mmHg 94%
08:00 +8°C° 0.8 mm 1 mps 750 mmHg 92%
09:00 +9°C° 0.8 mm 1 mps 750 mmHg 91%
10:00 +9°C° 0.8 mm 2 mps 751 mmHg 90%
11:00 +9°C° 0.4 mm 2 mps 750 mmHg 90%
12:00 +10°C° 0.4 mm 2 mps 750 mmHg 90%
13:00 +10°C° 0.4 mm 2 mps 750 mmHg 90%
14:00 +10°C° 0.3 mm 2 mps 750 mmHg 90%
15:00 +10°C° 0.3 mm 2 mps 750 mmHg 90%
16:00 +10°C° 0.3 mm 2 mps 750 mmHg 89%
17:00 +10°C° 0.5 mm 2 mps 750 mmHg 91%
18:00 +9°C° 0.5 mm 2 mps 750 mmHg 93%
19:00 +9°C° 0.5 mm 3 mps 751 mmHg 95%
20:00 +9°C° 0 mm 2 mps 751 mmHg 95%
21:00 +8°C° 0 mm 2 mps 751 mmHg 94%
22:00 +8°C° 0 mm 2 mps 751 mmHg 93%
23:00 +8°C° 0.1 mm 2 mps 751 mmHg 93%

13 July, Monday

Time Temperature Precipitation Wind Pressure Humidity
00:00 +8°C° 0.1 mm 2 mps 751 mmHg 93%
01:00 +8°C° 0.1 mm 2 mps 752 mmHg 93%
02:00 +8°C° 0.1 mm 2 mps 752 mmHg 93%
03:00 +8°C° 0.1 mm 3 mps 752 mmHg 93%
04:00 +7°C° 0.1 mm 4 mps 752 mmHg 92%
05:00 +7°C° 0 mm 4 mps 752 mmHg 92%
06:00 +7°C° 0 mm 5 mps 753 mmHg 91%
07:00 +7°C° 0 mm 5 mps 753 mmHg 90%
08:00 +8°C° 0 mm 5 mps 753 mmHg 87%
09:00 +10°C° 0 mm 6 mps 754 mmHg 84%
10:00 +11°C° 0 mm 6 mps 754 mmHg 81%
11:00 +13°C° 0 mm 6 mps 754 mmHg 76%
12:00 +15°C° 0 mm 6 mps 754 mmHg 70%
13:00 +16°C° 0 mm 6 mps 754 mmHg 64%
14:00 +15°C° 0 mm 6 mps 754 mmHg 66%
15:00 +15°C° 0 mm 6 mps 754 mmHg 69%
16:00 +14°C° 0 mm 6 mps 754 mmHg 71%
17:00 +13°C° 0 mm 5 mps 755 mmHg 73%
18:00 +10°C° 0 mm 5 mps 755 mmHg 75%
19:00 +9°C° 0 mm 5 mps 756 mmHg 77%
20:00 +8°C° 0 mm 5 mps 756 mmHg 78%
21:00 +8°C° 0 mm 4 mps 756 mmHg 80%
22:00 +8°C° 0 mm 4 mps 757 mmHg 82%
23:00 +7°C° 0 mm 4 mps 757 mmHg 83%

14 July, Tuesday

Time Temperature Precipitation Wind Pressure Humidity
00:00 +7°C° 0 mm 5 mps 757 mmHg 84%
01:00 +6°C° 0 mm 5 mps 757 mmHg 85%
02:00 +6°C° 0 mm 5 mps 757 mmHg 87%
03:00 +6°C° 0 mm 4 mps 757 mmHg 90%
04:00 +5°C° 0 mm 4 mps 757 mmHg 92%
05:00 +5°C° 0 mm 4 mps 757 mmHg 91%
06:00 +5°C° 0 mm 4 mps 758 mmHg 91%
07:00 +5°C° 0 mm 3 mps 758 mmHg 91%
08:00 +6°C° 0 mm 4 mps 758 mmHg 84%
09:00 +8°C° 0 mm 5 mps 758 mmHg 78%
10:00 +9°C° 0 mm 5 mps 758 mmHg 72%
11:00 +10°C° 0 mm 5 mps 758 mmHg 68%
12:00 +12°C° 0 mm 5 mps 758 mmHg 64%
13:00 +13°C° 0 mm 5 mps 757 mmHg 60%
14:00 +13°C° 0 mm 5 mps 757 mmHg 63%
15:00 +12°C° 0 mm 5 mps 757 mmHg 66%
16:00 +12°C° 0 mm 5 mps 757 mmHg 69%
17:00 +9°C° 0 mm 5 mps 758 mmHg 71%
18:00 +8°C° 0 mm 4 mps 758 mmHg 73%
19:00 +6°C° 0 mm 4 mps 758 mmHg 75%
20:00 +6°C° 0 mm 4 mps 758 mmHg 77%
21:00 +5°C° 0 mm 4 mps 758 mmHg 79%
22:00 +5°C° 0 mm 4 mps 758 mmHg 81%
23:00 +4°C° 0 mm 3 mps 758 mmHg 84%
Show more